Stevens Point, WI

6:16 PM CDT on April 28, 2017 (GMT -0500)
Stevens Point Municipal

Weather History for KSTE - June, 2013

Change the Weather History Date:

Monday, June 3, 2013

  Actual Average Record
Temperature  
Mean Temperature 51 °F -  
Max Temperature 68 °F 72 °F 93 °F (1948)
Min Temperature 35 °F 48 °F 35 °F (2013)
Degree Days  
Heating Degree Days 14    
Growing Degree Days 1 (Base 50)    
Moisture  
Dew Point 40 °F    
Average Humidity 62    
Maximum Humidity 97    
Minimum Humidity 34    
Precipitation  
Precipitation 0.00 in - - ()
Sea Level Pressure  
Sea Level Pressure 30.05 in    
Wind  
Wind Speed 3 mph (West)    
Max Wind Speed 13 mph    
Max Gust Speed 20 mph    
Visibility 10 miles    
Events      
Averages and records for this station are not official NWS values.
T = Trace of Precipitation, MM = Missing Value Source: NWS Daily Summary

Daily Weather History Graph

Daily Weather History Graph

Search for Another Location

Airport or City:

Trip Planner

Search our weather history database for the weather conditions in past years. The results will help you decide how hot, cold, wet, or windy it might be!

Date:

Astronomy

Jun. 03, 2013 Rise Set
Actual Time 5:15 AM CDT 8:37 PM CDT
Civil Twilight 4:39 AM CDT 9:14 PM CDT
Nautical Twilight 3:52 AM CDT 10:01 PM CDT
Astronomical Twilight 2:52 AM CDT 11:00 PM CDT
Moon 2:23 AM CDT (6/3) 3:59 PM CDT (6/3)
Length of Visible Light 16h 34m
Length of Day
15h 22m
Waning Crescent, 22% of the Moon is Illuminated
Jun 3
Waning Crescent
Jun 8
New
Jun 16
First Quarter
Jun 23
Full
Jun 29
Last Quarter

Hourly Weather History & Observations

Time (CDT) Temp. Windchill Dew Point Humidity Pressure Visibility Wind Dir Wind Speed Gust Speed Precip Events Conditions
12:15 AM 39.4 °F 37.2 °F 38.3 °F 96% 30.03 in 10.0 mi NE 3.5 mph - N/A   Clear
12:35 AM 41.2 °F - 39.6 °F 94% 30.03 in 10.0 mi Calm Calm - N/A   Clear
12:55 AM 40.6 °F - 39.0 °F 94% 30.03 in 10.0 mi Calm Calm - N/A   Clear
1:15 AM 40.5 °F - 39.0 °F 95% 30.03 in 10.0 mi Calm Calm - N/A   Clear
1:35 AM 40.1 °F - 38.3 °F 93% 30.03 in 10.0 mi Calm Calm - N/A   Clear
1:55 AM 39.6 °F - 38.3 °F 95% 30.03 in 10.0 mi Calm Calm - N/A   Clear
2:15 AM 39.0 °F - 37.6 °F 95% 30.03 in 10.0 mi Calm Calm - N/A   Clear
2:35 AM 38.8 °F - 37.6 °F 95% 30.04 in 10.0 mi Calm Calm - N/A   Clear
2:55 AM 37.2 °F - 36.0 °F 95% 30.03 in 10.0 mi Calm Calm - N/A   Clear
3:15 AM 37.2 °F - 36.3 °F 97% 30.04 in 10.0 mi Calm Calm - N/A   Clear
3:35 AM 36.9 °F - 35.8 °F 96% 30.04 in 10.0 mi Calm Calm - N/A   Clear
3:55 AM 37.2 °F - 35.8 °F 95% 30.04 in 10.0 mi Calm Calm - N/A   Clear
4:15 AM 37.4 °F - 36.0 °F 95% 30.04 in 10.0 mi Calm Calm - N/A   Clear
4:35 AM 36.7 °F - 35.2 °F 95% 30.04 in 10.0 mi Calm Calm - N/A   Clear
4:55 AM 36.7 °F - 35.6 °F 96% 30.04 in 10.0 mi Calm Calm - N/A   Clear
5:15 AM 35.8 °F - 34.5 °F 95% 30.04 in 10.0 mi Calm Calm - N/A   Clear
5:35 AM 35.6 °F - 34.2 °F 94% 30.04 in 10.0 mi Calm Calm - N/A   Clear
5:55 AM 35.4 °F - 34.3 °F 96% 30.05 in 10.0 mi Calm Calm - N/A   Clear
6:15 AM 38.3 °F - 37.2 °F 96% 30.06 in 10.0 mi Calm Calm - N/A   Clear
6:35 AM 40.6 °F - 39.2 °F 95% 30.06 in 10.0 mi Calm Calm - N/A   Clear
6:55 AM 43.5 °F - 41.7 °F 93% 30.06 in 10.0 mi Calm Calm - N/A   Clear
7:15 AM 47.3 °F - 43.9 °F 88% 30.06 in 10.0 mi SW 3.5 mph - N/A   Clear
7:35 AM 50.2 °F - 41.4 °F 72% 30.06 in 10.0 mi WSW 6.9 mph - N/A   Clear
7:55 AM 50.9 °F - 41.9 °F 71% 30.07 in 10.0 mi SW 5.8 mph - N/A   Clear
8:15 AM 52.2 °F - 42.6 °F 70% 30.07 in 10.0 mi WSW 5.8 mph - N/A   Clear
8:35 AM 54.0 °F - 43.3 °F 67% 30.07 in 10.0 mi SW 5.8 mph - N/A   Clear
8:55 AM 56.3 °F - 42.4 °F 60% 30.07 in 10.0 mi WNW 5.8 mph - N/A   Clear
9:15 AM 57.2 °F - 43.0 °F 59% 30.07 in 10.0 mi WSW 9.2 mph - N/A   Clear
9:35 AM 58.1 °F - 43.0 °F 57% 30.07 in 10.0 mi West 6.9 mph - N/A   Clear
9:55 AM 59.7 °F - 41.0 °F 50% 30.06 in 10.0 mi West 8.1 mph - N/A   Clear
10:15 AM 60.4 °F - 42.4 °F 51% 30.07 in 10.0 mi WSW 9.2 mph - N/A   Clear
10:35 AM 60.8 °F - 41.7 °F 49% 30.07 in 10.0 mi West 8.1 mph - N/A   Scattered Clouds
10:55 AM 62.2 °F - 42.4 °F 48% 30.06 in 10.0 mi SW 6.9 mph - N/A   Scattered Clouds
11:15 AM 62.6 °F - 41.2 °F 45% 30.06 in 10.0 mi WSW 12.7 mph 17.3 mph N/A   Scattered Clouds
11:35 AM 63.7 °F - 38.5 °F 39% 30.06 in 10.0 mi West 5.8 mph - N/A   Mostly Cloudy
11:55 AM 64.0 °F - 37.9 °F 38% 30.06 in 10.0 mi WNW 9.2 mph - N/A   Mostly Cloudy
12:15 PM 64.2 °F - 37.8 °F 38% 30.06 in 10.0 mi WNW 4.6 mph 17.3 mph N/A   Scattered Clouds
12:35 PM 65.1 °F - 39.6 °F 39% 30.05 in 10.0 mi WNW 3.5 mph - N/A   Mostly Cloudy
12:55 PM 64.9 °F - 39.0 °F 39% 30.05 in 10.0 mi NW 5.8 mph 19.6 mph N/A   Mostly Cloudy
1:15 PM 64.2 °F - 38.5 °F 39% 30.05 in 10.0 mi SW 5.8 mph 18.4 mph N/A   Mostly Cloudy
1:35 PM 65.7 °F - 39.0 °F 38% 30.04 in 10.0 mi West 9.2 mph - N/A   Scattered Clouds
1:55 PM 65.5 °F - 38.5 °F 37% 30.04 in 10.0 mi WSW 3.5 mph - N/A   Scattered Clouds
2:15 PM 65.5 °F - 38.7 °F 37% 30.03 in 10.0 mi WSW 6.9 mph - N/A   Mostly Cloudy
2:35 PM 66.7 °F - 39.7 °F 37% 30.03 in 10.0 mi WSW 9.2 mph - N/A   Scattered Clouds
2:55 PM 67.1 °F - 38.7 °F 35% 30.03 in 10.0 mi WNW 5.8 mph - N/A   Scattered Clouds
3:15 PM 66.9 °F - 38.5 °F 35% 30.02 in 10.0 mi West 10.4 mph 19.6 mph N/A   Scattered Clouds
3:35 PM 67.3 °F - 39.0 °F 35% 30.01 in 10.0 mi West 12.7 mph 18.4 mph N/A   Clear
3:55 PM 66.9 °F - 37.6 °F 34% 30.02 in 10.0 mi West 8.1 mph - N/A   Clear
4:15 PM 67.3 °F - 37.8 °F 34% 30.02 in 10.0 mi West 5.8 mph - N/A   Clear
4:35 PM 66.4 °F - 37.6 °F 35% 30.02 in 10.0 mi NW 3.5 mph - N/A   Clear
4:55 PM 66.2 °F - 38.3 °F 36% 30.01 in 10.0 mi WNW 4.6 mph - N/A   Clear
5:15 PM 66.6 °F - 38.7 °F 36% 30.01 in 10.0 mi West 4.6 mph - N/A   Clear
5:35 PM 66.4 °F - 39.4 °F 37% 30.00 in 10.0 mi West 5.8 mph - N/A   Clear
5:55 PM 66.7 °F - 39.0 °F 36% 30.01 in 10.0 mi NW 5.8 mph - N/A   Clear
6:15 PM 66.2 °F - 39.2 °F 37% 30.01 in 10.0 mi NW 4.6 mph - N/A   Clear
6:35 PM 66.2 °F - 39.9 °F 38% 30.02 in 10.0 mi West 5.8 mph - N/A   Clear
6:55 PM 65.3 °F - 39.6 °F 39% 30.02 in 10.0 mi West 6.9 mph - N/A   Clear
7:15 PM 65.3 °F - 39.7 °F 39% 30.02 in 10.0 mi WSW 4.6 mph - N/A   Clear
7:35 PM 65.1 °F - 40.1 °F 40% 30.03 in 10.0 mi Calm Calm - N/A   Clear
7:55 PM 64.4 °F - 41.4 °F 43% 30.02 in 10.0 mi Calm Calm - N/A   Clear
8:15 PM 63.7 °F - 41.7 °F 45% 30.03 in 10.0 mi Calm Calm - N/A   Clear
8:35 PM 60.3 °F - 46.0 °F 59% 30.03 in 10.0 mi Calm Calm - N/A   Clear
8:55 PM 58.3 °F - 42.4 °F 56% 30.03 in 10.0 mi Calm Calm - N/A   Clear
9:15 PM 58.6 °F - 46.2 °F 63% 30.05 in 10.0 mi Calm Calm - N/A   Clear
9:35 PM 56.8 °F - 47.1 °F 70% 30.06 in 10.0 mi Calm Calm - N/A   Clear
9:55 PM 57.4 °F - 47.5 °F 70% 30.07 in 10.0 mi Calm Calm - N/A   Scattered Clouds
10:15 PM 56.5 °F - 48.2 °F 74% 30.07 in 10.0 mi Calm Calm - N/A   Scattered Clouds
10:35 PM 55.6 °F - 46.8 °F 72% 30.07 in 10.0 mi Calm Calm - N/A   Scattered Clouds
10:55 PM 57.2 °F - 43.3 °F 60% 30.09 in 10.0 mi ENE 9.2 mph - N/A   Scattered Clouds
11:15 PM 57.6 °F - 43.0 °F 58% 30.10 in 10.0 mi ENE 9.2 mph - N/A   Mostly Cloudy
11:35 PM 57.2 °F - 42.6 °F 58% 30.11 in 10.0 mi ENE 6.9 mph - N/A   Overcast
11:55 PM 56.5 °F - 42.8 °F 60% 30.11 in 10.0 mi ENE 9.2 mph - N/A   Overcast